Location: Shenandoah County Park
(38.9356°N, 78.4524°W)
Time: 08:02:34
(UTC-05:00)

Vanguard 1 Rocket - Visible Passes

Search period start: 04 December 2023 00:00
Search period end: 14 December 2023 00:00
Orbit: 656 x 4218 km, 34.3° (Epoch: 03 December)

Date Brightness Start Highest point End Pass type
(mag) Time Alt. Az. Time Alt. Az. Time Alt. Az.
04 Dec 11.8 00:44:50 10° SE 00:50:10 11° SE 00:55:15 10° ESE visible
04 Dec 11.0 02:59:21 11° SSW 03:19:55 36° SSE 03:34:15 10° E visible
04 Dec 10.0 05:28:03 10° WSW 05:49:28 61° SSE 06:00:51 10° E visible
05 Dec 11.3 01:55:23 20° S 02:05:45 26° SE 02:20:20 10° E visible
05 Dec 10.4 04:12:55 10° SW 04:35:42 52° SSE 04:49:13 10° E visible
05 Dec 9.6 06:45:16 10° WSW 07:04:41 71° S 07:14:22 10° E visible
06 Dec 11.6 00:50:08 16° SE 00:51:40 17° SE 01:03:27 10° ESE visible
06 Dec 10.8 03:07:35 25° SSW 03:21:32 43° SSE 03:36:53 10° E visible
06 Dec 10.0 05:29:08 10° WSW 05:51:22 67° SSE 06:03:09 10° E visible
07 Dec 11.1 02:01:40 30° SSE 02:07:11 33° SE 02:23:28 10° E visible
07 Dec 10.3 04:19:03 20° SW 04:37:27 59° SSE 04:51:32 10° E visible
07 Dec 9.7 06:46:45 10° W 07:06:42 73° S 07:16:39 10° E visible
08 Dec 11.4 00:55:21 22° SE 00:55:21 22° SE 01:08:04 10° E visible
08 Dec 10.6 03:12:42 36° SSW 03:23:04 50° SSE 03:39:18 10° E visible
08 Dec 9.9 05:30:22 10° WSW 05:53:16 71° S 06:05:25 10° E visible
09 Dec 10.9 02:06:05 39° SSE 02:08:32 39° SE 02:26:09 10° E visible
09 Dec 10.2 04:23:25 27° SW 04:39:10 65° SSE 04:53:46 10° E visible
09 Dec 9.7 06:48:17 10° W 07:08:40 73° S 07:18:54 10° ESE visible
10 Dec 11.3 00:59:15 27° ESE 00:59:15 27° ESE 01:11:32 10° E visible
10 Dec 10.5 03:16:33 45° SSW 03:24:36 57° SSE 03:41:34 10° E visible
10 Dec 9.9 05:33:52 14° WSW 05:55:09 74° S 06:07:39 10° E visible
10 Dec 11.7 23:52:14 12° E 23:52:14 12° E 23:53:54 10° E visible
11 Dec 10.8 02:09:31 46° SSE 02:09:49 46° SSE 02:28:34 10° E visible
11 Dec 10.2 04:26:49 33° WSW 04:40:53 70° SSE 04:55:58 10° E visible
11 Dec 9.8 06:49:49 10° W 07:10:36 72° S 07:21:06 10° ESE visible
12 Dec 11.2 01:02:21 31° ESE 01:02:21 31° ESE 01:14:22 10° E visible
12 Dec 10.4 03:19:37 53° SSW 03:26:05 63° SSE 03:43:44 10° E visible
12 Dec 10.0 05:36:54 17° W 05:57:00 76° S 06:09:51 10° E visible
12 Dec 11.7 23:55:03 14° E 23:55:03 14° E 23:58:04 10° E visible
13 Dec 10.6 02:12:18 53° SE 02:12:18 53° SE 02:30:48 10° E visible
13 Dec 10.2 04:29:35 37° WSW 04:42:35 74° S 04:58:07 10° E visible
13 Dec 9.8 06:51:21 10° W 07:12:26 69° SSW 07:23:14 10° ESE visible
